Tracking 31013 objects as of 10-Jul-2025
HD Live streaming from Space Station
objects crossing your sky now

THOR AGENA B DEB

Track THOR AGENA B DEB now!
10-day predictions


NORAD ID: 2092
Int'l Code: 1965-098H
Perigee: 509.7 km
Apogee: 2,566.5 km
Inclination: 79.9 °
Period: 116.7 minutes
Semi major axis: 7909 km
RCS: 0.1037 m2 (medium)
Launch date: November 29, 1965
Source: United States (US)
Launch site: AIR FORCE WESTERN TEST RANGE (AFWTR)

Note: This is SATELLITE DEBRIS
Your satellite tracking list
Your tracking list is empty




NASA's NSSDC Master Catalog

Two Line Element Set (TLE):
1 02092U 65098H   25190.76911921  .00000785  00000-0  24974-3 0  9993
2 02092  79.8644 293.3445 1300278  89.6587 285.2978 12.34275464638160
Source of the keplerian elements: AFSPC